Location: Glenbow
(51.1592°N, 114.3828°W)
Time: 14:40:27
(UTC+00:00)

Envisat - Pass Details

Date: 08 December 2021
Orbit: 764 x 766 km, 98.2° (Epoch: 28 January)

Event Time Altitude Azimuth Distance (km) Brightness Sun altitude
Rises 13:01:41 0° 13° (NNE) 3,248 6.3 -21.8°
Reaches altitude 10° 13:04:01 10° 12° (NNE) 2,317 5.5 -21.5°
Maximum altitude 13:09:07 77° 287° (WNW) 792 2.8 -20.7°
Drops below altitude 10° 13:14:10 10° 203° (SSW) 2,299 5.4 -19.9°
Sets 13:16:28 0° 201° (SSW) 3,220 6.1 -19.5°
